Tracking 27382 objects as of 5-Jun-2023
HD Live streaming from Space Station
objects crossing your sky now

STARLINK-5893

Track STARLINK-5893 now!
10-day predictions
STARLINK-5893 is classified as:


NORAD ID: 55952
Int'l Code: 2023-037AQ
Perigee: 364.3 km
Apogee: 368.1 km
Inclination: 70.0 °
Period: 91.7 minutes
Semi major axis: 6737 km
RCS: Unknown
Launch date: March 17, 2023
Source: United States (US)
Launch site: AIR FORCE WESTERN TEST RANGE (AFWTR)
Your satellite tracking list
Your tracking list is empty




NASA's NSSDC Master Catalog

Two Line Element Set (TLE):
1 55952U 23037AQ  23155.79430058  .00000502  00000-0  59429-5 0  9994
2 55952  70.0005 318.8763 0002808 260.9873  99.1005 15.69933538 12930
Source of the keplerian elements: AFSPC